Weather History for Casper, WY

Change the Weather History Date:

Tuesday, January 10, 2012

  Actual Average Record
Temperature  
Mean Temperature 34 °F 25 °F  
Max Temperature 44 °F 35 °F 59 °F (1990)
Min Temperature 24 °F 14 °F -26 °F (1962)
Degree Days  
Heating Degree Days 31 40  
Month to date heating degree days 345 405  
Since 1 July heating degree days 3245 3534  
Cooling Degree Days 0 0  
Month to date cooling degree days 0 0  
Year to date cooling degree days 0 0  
Moisture  
Dew Point 22 °F    
Average Humidity 64    
Maximum Humidity 92    
Minimum Humidity 36    
Precipitation  
Precipitation 0.14 in 0.01 in 0.15 in (1976)
Month to date precipitation 0.14 0.16  
Year to date precipitation 0.14 0.16  
Snow  
Snow 1.70 in 0.20 in - ()
Month to date snowfall 1.7 3.1  
Since 1 July snowfall 28.4 33.6  
Snow Depth 0.00 in    
Sea Level Pressure  
Sea Level Pressure 29.95 in    
Wind  
Wind Speed 20 mph (WNW)    
Max Wind Speed 30 mph    
Max Gust Speed 40 mph    
Visibility 6 miles    
Events Fog , Snow    
T = Trace of Precipitation, MM = Missing Value Source: NWS Daily Summary

Daily Weather History Graph

Daily Weather History Graph

Search for Another Location

Airport:

Trip Planner

Search our weather history database for the weather conditions in past years. The results will help you decide how hot, cold, wet, or windy it might be!

Date:

Astronomy

Jan. 10, 2012 Rise Set
Actual Time 7:36 AM MST 4:50 PM MST
Civil Twilight 7:04 AM MST 5:22 PM MST
Nautical Twilight 6:29 AM MST 5:57 PM MST
Astronomical Twilight 5:54 AM MST 6:31 PM MST
Moon 6:49 PM MST (1/10) 8:12 AM MST (1/10)
Length of Visible Light 10h 18m
Length of Day
9h 14m
Full, 98% of the Moon is Illuminated
Jan 10
Full
Jan 16
Last Quarter
Jan 23
New
Jan 30
First Quarter
Feb 7
Full

Hourly Weather History & Observations

Time (MST) Temp. Windchill Dew Point Humidity Pressure Visibility Wind Dir Wind Speed Gust Speed Precip Events Conditions
12:53 AM 32.0 °F 24.2 °F 19.9 °F 61% 30.15 in 10.0 mi WSW 9.2 mph - N/A   Clear
1:53 AM 34.0 °F 22.1 °F 21.0 °F 59% 30.10 in 10.0 mi SW 21.9 mph - N/A   Clear
2:53 AM 34.0 °F 25.0 °F 21.0 °F 59% 30.10 in 10.0 mi WSW 12.7 mph 19.6 mph N/A   Clear
3:53 AM 33.1 °F 22.6 °F 21.0 °F 61% 30.08 in 10.0 mi SW 16.1 mph 23.0 mph N/A   Clear
4:53 AM 33.1 °F 21.2 °F 19.9 °F 59% 30.07 in 10.0 mi SSW 20.7 mph - N/A   Clear
5:53 AM 33.1 °F 21.2 °F 19.9 °F 59% 30.06 in 10.0 mi SW 20.7 mph 27.6 mph N/A   Clear
6:53 AM 30.2 °F 18.5 °F 19.4 °F 64% 30.02 in 10.0 mi SW 17.3 mph 23.0 mph N/A   Clear
7:53 AM 32.0 °F 22.5 °F 19.0 °F 59% 30.05 in 10.0 mi SW 12.7 mph 19.6 mph N/A   Clear
8:53 AM 36.0 °F 24.7 °F 19.0 °F 50% 30.01 in 10.0 mi SW 21.9 mph 31.1 mph N/A   Clear
9:53 AM 39.0 °F 28.8 °F 19.0 °F 45% 29.99 in 10.0 mi SW 21.9 mph 31.1 mph N/A   Clear
10:53 AM 41.0 °F 30.9 °F 19.0 °F 41% 29.96 in 10.0 mi SW 24.2 mph 35.7 mph N/A   Clear
11:53 AM 42.1 °F 31.7 °F 18.0 °F 38% 29.91 in 10.0 mi SSW 27.6 mph 34.5 mph N/A   Clear
12:53 PM 43.0 °F 33.1 °F 18.0 °F 37% 29.87 in 10.0 mi SSW 26.5 mph 35.7 mph N/A   Clear
1:53 PM 43.0 °F 32.5 °F 18.0 °F 37% 29.83 in 10.0 mi SW 29.9 mph 40.3 mph N/A   Clear
2:53 PM 43.0 °F 33.3 °F 18.0 °F 37% 29.81 in 10.0 mi SSW 25.3 mph 34.5 mph N/A   Clear
3:53 PM 43.0 °F 33.3 °F 18.0 °F 37% 29.79 in 10.0 mi SW 25.3 mph 33.4 mph N/A   Clear
4:53 PM 41.0 °F 31.4 °F 18.0 °F 40% 29.79 in 10.0 mi SSW 21.9 mph 31.1 mph N/A   Clear
5:53 PM 39.9 °F - 18.0 °F 41% 29.81 in 10.0 mi North - - N/A   Clear
6:53 PM 41.0 °F 30.5 °F 19.0 °F 41% 29.83 in 10.0 mi SW 26.5 mph 34.5 mph N/A   Overcast
7:39 PM 35.6 °F 25.2 °F 28.4 °F 75% 29.88 in 2.5 mi NNE 18.4 mph - 0.00 in Snow Light Snow
7:46 PM 33.8 °F 24.3 °F 28.4 °F 81% 29.88 in 2.0 mi NNE 13.8 mph - 0.00 in Snow Light Snow
7:53 PM 33.1 °F 24.4 °F 30.0 °F 89% 29.92 in 1.5 mi NNE 11.5 mph - 0.01 in Snow Light Snow
8:02 PM 33.8 °F 25.8 °F 30.2 °F 87% 29.88 in 1.2 mi NNE 10.4 mph - 0.00 in Snow Light Snow
8:34 PM 33.8 °F 25.8 °F 30.2 °F 87% 29.89 in 1.2 mi NNE 10.4 mph - 0.02 in Snow Light Snow
8:53 PM 32.0 °F 23.6 °F 30.2 °F 93% 29.89 in 1.0 mi NE 10.4 mph - N/A Snow Light Snow
9:00 PM 32.0 °F 23.6 °F 28.4 °F 87% 29.90 in 0.8 mi NE 10.4 mph - 0.01 in Snow Light Snow
9:18 PM 30.2 °F 20.2 °F 26.6 °F 86% 29.91 in 1.5 mi NE 12.7 mph - 0.03 in Snow Light Snow
9:31 PM 30.2 °F 18.9 °F 26.6 °F 86% 29.92 in 0.8 mi NNE 16.1 mph - 0.04 in Snow Light Snow
9:53 PM 28.9 °F 16.1 °F 26.1 °F 89% 29.96 in 0.5 mi North 19.6 mph 31.1 mph 0.07 in Fog , Snow Snow
10:17 PM 28.4 °F 13.8 °F 24.8 °F 86% 29.92 in 1.2 mi North 25.3 mph 34.5 mph 0.02 in Snow Light Snow
10:34 PM 26.6 °F 12.4 °F 24.8 °F 93% 29.93 in 0.8 mi North 21.9 mph 29.9 mph 0.02 in Snow Light Snow
10:53 PM 27.0 °F 14.3 °F 23.0 °F 85% 29.98 in 1.8 mi NNE 17.3 mph 26.5 mph 0.02 in Snow Light Snow
11:00 PM 26.6 °F 12.7 °F 23.0 °F 86% 29.95 in 2.0 mi North 20.7 mph 28.8 mph 0.00 in Snow Light Snow
11:43 PM 24.8 °F 10.7 °F 19.4 °F 80% 29.99 in 1.2 mi North 19.6 mph 24.2 mph 0.00 in Snow Light Snow
11:53 PM 24.1 °F 10.6 °F 19.9 °F 84% 30.05 in 1.0 mi North 17.3 mph - 0.01 in Snow Light Snow